Hill Air Force Base, UT

1:48 AM MST on February 14, 2016 (GMT -0700)
Hill Air Force Base

Weather History for KHIF - January, 2014

Change the Weather History Date:

Thursday, January 16, 2014

  Actual Average Record
Temperature  
Mean Temperature 28 °F -  
Max Temperature 36 °F 34 °F - (-1)
Min Temperature 21 °F 22 °F - (-1)
Degree Days  
Heating Degree Days 36    
Moisture  
Dew Point 14 °F    
Average Humidity 56    
Maximum Humidity 65    
Minimum Humidity 42    
Precipitation  
Precipitation 0.00 in - - ()
Snow  
Snow 0.00 in - - ()
Snow Depth 7.00 in    
Sea Level Pressure  
Sea Level Pressure 30.53 in    
Wind  
Wind Speed 11 mph (ESE)    
Max Wind Speed 17 mph    
Max Gust Speed -    
Visibility 10 miles    
Events      
Averages and records for this station are not official NWS values.
T = Trace of Precipitation, MM = Missing Value Source: NWS Daily Summary

Daily Weather History Graph

Daily Weather History Graph

Search for Another Location

Airport or City:

Trip Planner

Search our weather history database for the weather conditions in past years. The results will help you decide how hot, cold, wet, or windy it might be!

Date:

Astronomy

Jan. 16, 2014 Rise Set
Actual Time 7:50 AM MST 5:25 PM MST
Civil Twilight 7:20 AM MST 5:55 PM MST
Nautical Twilight 6:46 AM MST 6:29 PM MST
Astronomical Twilight 6:13 AM MST 7:02 PM MST
Moon 6:21 PM MST (1/16) 7:45 AM MST (1/16)
Length of Visible Light 10h 35m
Length of Day
9h 34m
Full, 100% of the Moon is Illuminated
Jan 16
Full
Jan 23
Last Quarter
Jan 30
New
Feb 6
First Quarter
Feb 14
Full

Hourly Weather History & Observations

Time (MST) Temp. Windchill Dew Point Humidity Pressure Visibility Wind Dir Wind Speed Gust Speed Precip Events Conditions
12:58 AM 27.1 °F 17.5 °F 15.1 °F 60% 30.50 in 10.0 mi ESE 10.4 mph - N/A   Clear
1:58 AM 26.6 °F 17.5 °F 14.4 °F 60% 30.51 in 10.0 mi ESE 9.2 mph - N/A   Clear
2:58 AM 26.4 °F 14.5 °F 14.0 °F 59% 30.51 in 10.0 mi ESE 15.0 mph - N/A   Clear
3:58 AM 24.4 °F 11.9 °F 14.0 °F 65% 30.52 in 10.0 mi ESE 15.0 mph - N/A   Clear
4:58 AM 23.9 °F 10.8 °F 12.2 °F 61% 30.53 in 10.0 mi ESE 16.1 mph - N/A   Clear
5:58 AM 24.1 °F 10.6 °F 11.8 °F 60% 30.52 in 10.0 mi ESE 17.3 mph - N/A   Clear
6:58 AM 22.5 °F 8.9 °F 11.3 °F 62% 30.54 in 10.0 mi ESE 16.1 mph - N/A   Clear
7:58 AM 21.6 °F 7.3 °F 10.4 °F 62% 30.56 in 10.0 mi ESE 17.3 mph - N/A   Partly Cloudy
8:58 AM 23.9 °F 10.8 °F 11.7 °F 60% 30.58 in 10.0 mi ESE 16.1 mph - N/A   Partly Cloudy
9:58 AM 24.3 °F 10.8 °F 10.8 °F 56% 30.60 in 10.0 mi ESE 17.3 mph - N/A   Mostly Cloudy
10:58 AM 27.5 °F 16.8 °F 12.2 °F 53% 30.59 in 10.0 mi ESE 12.7 mph - N/A   Mostly Cloudy
11:58 AM 30.2 °F 21.3 °F 12.0 °F 47% 30.56 in 10.0 mi ESE 10.4 mph - N/A   Clear
12:58 PM 32.9 °F 25.9 °F 13.3 °F 44% 30.54 in 10.0 mi ESE 8.1 mph - N/A   Clear
1:58 PM 34.9 °F 29.9 °F 13.8 °F 42% 30.51 in 10.0 mi East 5.8 mph - N/A   Clear
2:58 PM 36.1 °F 33.5 °F 20.8 °F 54% 30.50 in 10.0 mi WSW 3.5 mph - N/A   Clear
3:58 PM 34.7 °F 30.6 °F 19.2 °F 53% 30.51 in 10.0 mi NW 4.6 mph - N/A   Clear
4:58 PM 33.4 °F 29.1 °F 18.5 °F 54% 30.52 in 10.0 mi NW 4.6 mph - N/A   Clear
5:58 PM 29.3 °F 25.6 °F 15.8 °F 57% 30.53 in 10.0 mi SE 3.5 mph - N/A   Clear
6:58 PM 28.9 °F 22.8 °F 14.4 °F 55% 30.54 in 10.0 mi ESE 5.8 mph - N/A   Clear
7:58 PM 27.3 °F 19.9 °F 14.2 °F 58% 30.55 in 10.0 mi ESE 6.9 mph - N/A   Clear
8:58 PM 26.8 °F 17.7 °F 14.0 °F 59% 30.53 in 10.0 mi ESE 9.2 mph - N/A   Clear
9:58 PM 27.1 °F 18.2 °F 13.6 °F 57% 30.53 in 10.0 mi East 9.2 mph - N/A   Clear
10:58 PM 26.2 °F 17.1 °F 12.9 °F 57% 30.53 in 10.0 mi ESE 9.2 mph - N/A   Clear
11:58 PM 25.5 °F 15.5 °F 12.7 °F 58% 30.52 in 10.0 mi ESE 10.4 mph - N/A   Clear